Location: Cormont
(50.5693°N, 1.7416°E)
Time: 15:56:01
(UTC+00:00)

Cosmos 1844 Rocket - Pass Details

Date: 21 October 2019
Orbit: 826 x 843 km, 71.0° (Epoch: 17 November)

Event Time Altitude Azimuth Distance (km) Brightness Sun altitude
Rises 18:06:49 0° 235° (SW) 3,389 6.9 -12.9°
Reaches altitude 10° 18:09:26 10° 243° (WSW) 2,456 6.2 -13.3°
Maximum altitude 18:14:40 38° 311° (NW) 1,265 4.1 -14.2°
Drops below altitude 10° 18:19:54 10° 19° (NNE) 2,458 4.9 -15.0°
Sets 18:22:32 0° 28° (NNE) 3,393 5.6 -15.4°
